STARLINK-34026, 63842

Orbit data source: Space-Track

STARLINK-34026, 63842 is a payload satellite owned by SpaceX/Seattle (US) in LEO that was launched on Wed, 07 May 2025 UTC via an FALCON 9 launch vehicle from the Air Force Eastern Test Range (AFETR). Payload-class satellites include a variety of spacecraft equipped with specific instruments for various scientific and technological missions. These include communications satellites like Starlink; space stations such as the ISS; scientific satellites like the Hubble; Earth observation satellites from companies like Planet Labs, Umbra, and HawkEye 360; GPS; miniature CubeSats for education and research; and military/defense satellites.

Loading next visibility...
Identifier
63842, 2025-093G
Orbit
LEO
Last TLE update
17 hours ago
Origin
Manufacturer
SpaceX/Seattle
Mission
Operational spacecraft
Bus & Motor
STARLINK V2MO, Unknown motor
Mass
575 kg wet, ~530 kg dry
Launch date (UTC)
2025-05-07 (1 month ago)
Launch vehicle
FALCON 9
Launch site
Air Force Eastern Test Range (AFETR)
Object type
Payload
Rocket body
Debris
Shape & HBR
Unknown
Radar Cross Section
Large (>1 m²)

Expand to show TLE details & history

TLE from 17 hours ago
0 STARLINK-34026
1 63842U 25093G   25169.57990598  .00014860  00000-0  36207-3 0  9997
2 63842  42.9965 130.0054 0001510 263.2726  96.7959 15.40719741  7357
Epoch: 2025-06-18T13:55Z
TLE epoch observation values (Epoch: 2025-06-18T13:55:03.876Z)
Latitude
-0°
Longitude
14.17934°
Altitude
443.88 km
Speed
7.648 km/s
True Right ascension
08h 40m 01s
True Declination
0° 00' 00"
Sunlit
Object was in daylight at epoch
Visualization orbit readout
Latitude
43.10118°
Longitude
96.44411°
Altitude
448.076 km
Speed
7.649 km/s
Apparent Right ascension
10h 15m 45s
Apparent Declination
6° 26' 20"
Sunlit
Object is in daylight
Visualization observer readout
Local Sidereal Time
18:15:13
Azimuth
295.092° NW
Elevation
-17.912°
Doppler factor
1
Orbital elements
Apogee altitude
446.971 km
Perigee altitude
444.91 km
Semi-major axis
6,824.078 km
Eccentricity
0.00015
Inclination
42.9965°
RAAN
130.0054°
Arg. of periapsis
263.2726°
True anomaly
Unknown
Mean anomaly
96.7959°
Eccentric anomaly
Unknown
Mean motion
3.85015 °/min
Orbital period
93.5 mins
BSTAR
0.00036207
Loading maneuver chart data...
Loading SW <> Apogee altitude chart data...
Loading historical data...
Loading historical data...
Loading historical data...
Loading historical data...
Loading historical data...
Loading historical data...
Loading historical data...

STARLINK-34026 Visibility forecast

Observer location: undefined°, undefined°

Span
Click to sort rows by Start time (UTC) header in descending order
Start Az.
Max El. time (UTC)
Max El. Az.
Max El.
End time (UTC)
End Az.
4 mins2025-06-20 00:22:34.664Z199.719° SSW2025-06-20 00:23:34.664Z170.44° S29.976°2025-06-20 00:26:34.664Z87.79° E
5 mins2025-06-20 01:59:34.664Z268.402° W2025-06-20 02:01:34.664Z306.51° NW40.113°2025-06-20 02:04:34.664Z67.531° E
5 mins2025-06-20 03:38:34.664Z299.415° NW2025-06-20 03:40:34.664Z23.919° NE37.533°2025-06-20 03:43:34.664Z82.685° E
5 mins2025-06-20 05:16:34.664Z279.629° WNW2025-06-20 05:18:34.664Z189.301° SSW42.452°2025-06-20 05:21:34.664Z120.995° SE
|